TimeMST,TemperatureF,Dew PointF,Humidity,Sea Level PressureIn,VisibilityMPH,Wind Direction,Wind SpeedMPH,Gust SpeedMPH,PrecipitationIn,Events,Conditions,WindDirDegrees,DateUTC
12:53 AM,10.9,8.1,88,30.27,10.0,Calm,Calm,-,N/A,,Clear,0,2013-01-19 07:53:00
1:53 AM,10.0,8.1,92,30.29,9.0,Calm,Calm,-,N/A,,Clear,0,2013-01-19 08:53:00
2:53 AM,1.9,-0.0,91,30.33,9.0,WSW,4.6,-,N/A,,Clear,250,2013-01-19 09:53:00
3:53 AM,3.0,-0.0,87,30.35,10.0,NNW,8.1,-,N/A,,Clear,330,2013-01-19 10:53:00
4:53 AM,3.0,-0.9,84,30.37,10.0,Calm,Calm,-,N/A,,Clear,0,2013-01-19 11:53:00
5:53 AM,-0.0,-2.0,91,30.41,10.0,Calm,Calm,-,N/A,,Clear,0,2013-01-19 12:53:00
6:53 AM,-0.9,-5.1,83,30.43,10.0,SE,5.8,-,N/A,,Clear,140,2013-01-19 13:53:00
7:53 AM,-2.9,-6.0,87,30.44,8.0,Calm,Calm,-,N/A,,Clear,0,2013-01-19 14:53:00
8:53 AM,1.9,-2.0,83,30.45,10.0,NNE,3.5,-,N/A,,Clear,20,2013-01-19 15:53:00
9:53 AM,6.1,3.0,87,30.45,10.0,Calm,Calm,-,N/A,,Clear,0,2013-01-19 16:53:00
10:53 AM,12.0,7.0,80,30.46,10.0,Calm,Calm,-,N/A,,Clear,0,2013-01-19 17:53:00
11:53 AM,18.0,10.0,71,30.43,10.0,Calm,Calm,-,N/A,,Clear,0,2013-01-19 18:53:00
12:53 PM,21.0,12.0,68,30.40,10.0,North,3.5,-,N/A,,Clear,350,2013-01-19 19:53:00
1:53 PM,24.1,14.0,65,30.38,10.0,NW,3.5,-,N/A,,Clear,320,2013-01-19 20:53:00
2:53 PM,26.1,15.1,63,30.39,10.0,Calm,Calm,-,N/A,,Clear,0,2013-01-19 21:53:00
3:53 PM,24.1,15.1,69,30.39,10.0,West,3.5,-,N/A,,Clear,280,2013-01-19 22:53:00
4:53 PM,21.0,14.0,74,30.40,10.0,NW,4.6,-,N/A,,Clear,310,2013-01-19 23:53:00
5:53 PM,19.9,14.0,78,30.40,10.0,Calm,Calm,-,N/A,,Clear,0,2013-01-20 00:53:00
6:53 PM,19.0,12.9,77,30.40,10.0,Calm,Calm,-,N/A,,Clear,0,2013-01-20 01:53:00
7:53 PM,14.0,9.0,80,30.41,10.0,Calm,Calm,-,N/A,,Clear,0,2013-01-20 02:53:00
8:53 PM,8.1,3.9,83,30.40,10.0,Calm,Calm,-,N/A,,Clear,0,2013-01-20 03:53:00
10:53 PM,5.0,1.0,84,30.39,10.0,NW,4.6,-,N/A,,Clear,310,2013-01-20 05:53:00
11:53 PM,6.1,3.0,87,30.38,9.0,Calm,Calm,-,N/A,,Clear,0,2013-01-20 06:53:00